Home > Weather > Schmallenberg > Past weeks

Flag for Germany Weather for the Past 2 Weeks in Schmallenberg, North Rhine-Westphalia, Germany

Now
54 °F

Passing clouds.


Feels Like: 50 °F
Forecast: 37 / 63 °F
Wind: 12 mph from North

Location: Hessen

Current Time: May 1, 2016 at 2:35:31 PM

Latest Report: May 1, 2016 at 1:50 PM


Visibility: N/A

Pressure: 30.18 "Hg

Humidity: 67%

Dew Point: 43 °F

Location of SchmallenbergLocation

Historic Weather in Schmallenberg — Graph

°F

Schmallenberg Temperature Yesterday

Maximum temperature yesterday: 48 °F (at 10:20 AM)
Minimum temperature yesterday: 39 °F (at 6:20 AM)
Average temperature yesterday: 45 °F

High & Low Weather Summary for the Past Weeks

 TemperatureHumidityPressure
High63 °F (Apr 21, 5:20 PM)100% (Apr 16, 8:20 PM)30.42 "Hg (Apr 16, 8:20 PM)
Low30 °F (Apr 24, 7:50 AM)30% (Apr 21, 5:50 PM)29.47 "Hg (Apr 26, 7:50 AM)
Average42 °F71%29.94 "Hg
* Reported Apr 16 1:20 PM — May 1 1:20 PM, Schmallenberg, Weather by CustomWeather, © 2016

Note: Actual official high and low records may vary slightly from our data, if they occured in-between our weather recording intervals... More about our weather records

Advertising

Schmallenberg Weather History for the Previous 24 Hours

Scroll right to see more
 ConditionsComfort  
Time TempWeatherWind HumidityBarometerVisibility
1:20 PM
Sun, May 1
54 °FPassing clouds.12 mph58%30.18 "HgN/A
12:50 PM52 °FSunny.14 mph72%30.18 "Hg10 mi
12:20 PM50 °FPassing clouds.13 mph82%30.18 "HgN/A
11:50 AM48 °FPassing clouds.15 mph82%30.18 "HgN/A
11:20 AM46 °FPassing clouds.15 mph87%30.15 "HgN/A
10:50 AM43 °FScattered clouds.16 mph100%30.15 "HgN/A
10:20 AM41 °FBroken clouds.16 mph100%30.15 "HgN/A
9:50 AM41 °FBroken clouds.15 mph100%30.15 "Hg5 mi
8:50 AM39 °FMore clouds than sun.13 mph100%30.15 "Hg4 mi
8:20 AM39 °FMore clouds than sun.13 mph100%30.12 "Hg5 mi
7:50 AM39 °FMore clouds than sun.12 mph100%30.12 "Hg3 mi
7:20 AM39 °FMore clouds than sun.13 mph100%30.12 "Hg3 mi
8:50 PM
Sat, Apr 30
39 °FPartly sunny.15 mph93%30.04 "HgN/A
8:20 PM41 °FPartly sunny.16 mph87%30.04 "HgN/A
7:50 PM41 °FPartly sunny.16 mph87%30.04 "HgN/A
7:20 PM43 °FDrizzle. Partly sunny.15 mph81%30.04 "HgN/A
6:50 PM43 °FMore clouds than sun.16 mph87%30.04 "HgN/A
6:20 PM45 °FPartly sunny.15 mph76%30.04 "HgN/A
5:50 PM46 °FOvercast.15 mph76%30.01 "HgN/A
5:20 PM46 °FOvercast.12 mph76%30.01 "HgN/A
4:50 PM46 °FBroken clouds.14 mph71%30.01 "HgN/A
4:20 PM48 °FBroken clouds.10 mph66%30.01 "HgN/A
3:50 PM48 °FBroken clouds.10 mph71%30.01 "HgN/A
3:20 PM46 °FBroken clouds.12 mph76%30.01 "HgN/A
2:50 PM46 °FBroken clouds.10 mph76%30.01 "HgN/A
2:20 PM46 °FPartly sunny.12 mph76%30.01 "HgN/A
Weather by CustomWeather, © 2016

See weather overviewHow to use our weather pages